CAPE
31 21 11 5 8 1 0 7 0 12 2 3 6 5 5 4 2 0 0 0 0 0 0 0 0 0 0 0 0 0 0 0 0 0 0 0 0 0 0 0 0 0 0 0 0 0 4 215 664 255 484 1105 965 883
29 13 8 11 14 3 0 7 0 10 13 7 7 3 6 5 3 0 0 0 0 0 0 0 0 0 0 0 0 0 0 0 0 0 0 0 0 1 0 0 0 0 0 0 0 0 0 373 552 635 721 904 807 867
24 7 25 26 25 1 0 1 2 12 9 9 2 1 0 1 3 3 0 0 0 0 0 0 0 0 0 0 0 0 0 0 0 0 0 0 0 0 26 28 23 15 54 60 21 18 72 414 624 459 623 970 782 760
16 25 13 1 0 6 4 0 0 16 10 3 1 3 2 4 3 4 1 0 0 0 0 0 0 0 0 0 0 0 0 0 0 0 0 0 0 0 1 6 5 21 48 87 61 62 96 282 431 426 587 432 401 494
12 7 9 4 5 11 10 4 0 1 11 7 1 2 3 4 4 0 0 0 0 0 0 0 0 0 0 0 0 0 0 0 0 0 0 0 0 0 0 0 4 18 73 60 67 88 164 160 137 218 498 383 186 220
12 5 7 10 2 3 7 3 0 0 4 4 5 5 3 0 3 0 0 0 0 0 0 0 0 0 0 0 0 0 0 0 0 0 0 0 0 1 11 35 0 15 1 41 102 76 165 169 264 206 118 153 156 123
9 9 8 4 0 5 2 3 0 0 1 3 3 2 0 0 0 0 0 0 0 0 0 0 0 0 0 0 0 0 0 0 0 0 0 0 0 0 1 1 8 0 0 0 14 70 187 181 137 208 221 104 19 3
4 2 11 7 0 2 0 1 0 0 2 1 0 0 0 0 0 0 0 0 0 0 0 0 0 0 0 3 9 0 0 0 0 0 0 0 0 17 0 1 0 0 0 0 0 32 37 22 130 144 116 113 104 72
5 1 12 2 1 0 0 0 1 1 0 0 0 0 0 0 0 0 0 0 0 0 0 0 0 4 0 0 0 10 0 0 0 0 0 0 0 5 2 0 0 6 0 0 0 21 75 42 54 108 126 44 70 73
0 0 4 3 2 0 0 0 1 0 0 0 0 0 0 0 0 0 0 0 0 1 0 0 0 0 0 0 0 0 0 2 0 0 0 0 0 4 33 16 0 0 7 7 0 67 85 0 10 66 91 252 222 166
1 1 4 7 5 0 0 0 0 0 0 0 0 1 0 0 1 2 1 0 0 0 0 0 0 0 0 1 2 0 0 2 9 0 0 1 0 24 0 11 2 2 0 0 11 1 0 0 0 0 77 296 276 211
3 3 4 9 1 0 0 0 0 0 0 0 1 0 0 0 2 1 0 0 0 6 12 7 10 0 0 0 4 0 0 1 5 0 1 1 3 25 1 2 3 3 0 0 3 21 2 0 0 0 4 238 327 206
2 1 3 6 0 0 0 0 0 0 0 1 0 0 0 0 0 0 0 2 4 14 23 27 3 6 1 0 4 0 0 3 0 0 15 16 15 5 0 0 0 0 0 0 0 15 27 6 0 0 2 88 234 146
1 6 0 2 0 0 0 0 0 0 0 0 0 0 0 0 0 0 3 2 2 8 12 0 2 0 0 4 10 2 5 0 3 2 6 2 0 0 0 0 0 0 0 0 0 0 17 36 0 0 1 44 66 131
4 4 0 0 0 0 0 0 0 0 0 0 0 0 0 0 0 0 0 0 0 0 0 0 0 0 0 1 6 5 11 2 7 0 1 3 2 0 0 1 1 0 1 0 0 0 19 26 35 68 113 185 221 169
1 7 2 0 0 0 0 0 0 0 0 0 0 0 0 0 0 0 2 1 1 3 0 0 0 0 1 1 5 6 13 6 2 3 3 0 1 0 2 2 1 2 2 2 1 5 39 110 83 93 116 121 119 101
0 0 0 0 0 0 0 0 0 0 0 0 0 0 0 0 0 0 3 3 0 4 0 4 1 0 0 1 3 1 12 0 1 0 0 2 1 1 3 2 1 2 1 2 3 12 11 21 49 39 12 9 10 15
0 0 0 0 0 0 0 0 0 0 0 0 0 0 0 0 3 0 0 0 0 0 1 6 14 1 0 0 1 6 0 0 0 0 2 2 2 2 1 1 2 2 3 3 2 2 14 13 9 0 1 3 3 2
0 0 0 0 0 0 0 0 0 0 0 0 0 0 0 0 0 0 0 1 2 0 0 1 0 0 0 1 0 0 0 0 0 0 2 0 1 2 2 2 2 1 1 1 1 0 0 1 0 1 2 0 3 2
0 0 0 0 0 0 0 0 0 0 0 0 0 0 0 0 0 7 3 2 0 4 5 0 0 3 1 0 0 0 0 1 2 1 2 2 2 2 2 2 2 2 2 2 2 2 2 1 0 2 0 2 1 1
0 0 0 0 0 0 0 0 0 0 0 0 0 0 0 0 3 0 1 0 0 1 2 0 0 0 0 0 0 1 0 1 1 3 1 2 2 2 2 2 2 2 2 2 2 2 2 1 2 2 2 3 3 1
0 0 0 0 0 0 0 0 0 0 0 0 0 0 0 2 0 1 0 1 1 0 0 0 0 0 0 0 0 3 2 1 1 1 0 0 1 1 1 2 1 1 2 2 2 1 2 2 1 1 0 0 0 0
0 0 0 0 0 0 0 0 0 0 0 1 0 1 1 1 2 0 2 0 0 0 0 1 0 0 0 1 3 2 2 2 2 2 2 2 2 2 1 1 1 1 1 2 1 2 1 1 3 2 1 1 1 0
0 0 0 0 0 0 0 0 0 1 1 1 0 0 0 2 1 2 0 0 0 1 2 3 6 10 12 2 2 2 3 1 2 2 2 1 1 1 0 0 0 0 0 0 0 0 1 1 0 0 0 0 0 0
0 0 0 0 0 0 0 1 0 1 0 2 0 0 1 3 0 0 0 0 2 0 11 9 11 3 1 2 2 1 0 0 1 0 1 0 0 0 0 0 0 0 2 0 0 0 0 0 0 0 0 0 0 0
0 0 0 0 0 0 1 0 0 0 1 0 1 3 2 1 0 0 1 1 1 0 4 13 2 3 1 1 1 0 0 0 0 0 0 0 0 0 0 0 0 0 0 0 0 0 0 0 0 0 0 0 0 0
0 0 1 0 1 2 1 0 1 0 1 1 1 1 0 0 0 0 1 1 0 0 4 5 2 0 1 0 0 0 0 0 0 0 0 0 0 0 0 0 0 0 0 0 0 0 0 0 0 0 0 0 0 0
1 0 0 1 1 1 0 0 1 1 3 0 0 0 0 0 1 0 0 0 0 0 0 0 0 0 0 0 0 0 0 0 0 0 0 0 0 0 0 0 0 0 0 0 0 0 0 0 0 0 0 0 0 0
0 0 0 0 0 0 0 2 3 0 0 0 0 0 0 0 0 0 1 5 8 5 0 0 0 0 0 0 0 0 0 0 0 0 0 0 0 0 0 0 0 0 0 0 0 0 0 0 0 0 0 0 0 0
0 0 0 0 0 0 0 0 0 0 0 0 0 0 0 0 0 0 0 0 0 0 0 0 0 0 0 0 0 0 0 0 0 0 0 0 0 0 0 0 0 0 0 0 0 0 0 0 0 0 0 0 0 0
0 1 5 2 0 0 0 0 0 0 0 1 0 0 0 0 0 0 0 0 0 0 0 0 0 0 0 0 0 0 0 0 0 0 0 0 0 0 0 0 0 0 0 0 0 0 0 0 0 0 0 0 0 0
4 3 4 1 3 5 8 1 0 0 0 0 0 0 0 0 0 0 0 0 0 0 0 0 0 0 0 0 0 0 0 0 0 0 0 0 0 0 0 0 0 0 0 0 0 0 0 0 0 0 0 0 0 0
3 2 0 4 4 3 0 0 0 0 0 0 0 0 0 0 0 0 0 0 0 0 0 0 0 0 0 0 0 0 0 0 0 0 0 0 0 0 0 0 0 0 0 0 0 0 0 0 0 0 0 0 0 0
CIN
0 -1 -1 -2 0 0 0 0 0 -1 0 -1 -1 0 -1 0 -1 0 0 0 0 0 0 0 0 0 0 0 0 0 0 0 0 0 0 0 0 0 0 0 0 0 0 0 0 0 -9 -222 -146 -61 -186 -222 -234 -255
-2 -5 -3 -3 0 0 0 0 0 -4 -2 -1 0 0 -1 0 0 0 0 0 0 0 0 0 0 0 0 0 0 0 0 0 0 0 0 0 0 -65 0 0 0 0 0 0 0 0 0 -268 -224 -273 -290 -275 -257 -291
-5 -15 -2 -2 -1 0 0 0 0 -4 -3 -2 0 0 -1 0 -2 -1 0 0 0 0 0 0 0 0 0 0 0 0 0 0 0 0 0 0 0 0 -25 -32 -75 -130 -169 -85 -77 -101 -145 -211 -215 -269 -268 -234 -276 -281
-14 -6 -14 -16 0 0 0 0 -1 -2 -2 -1 0 -1 -1 -1 -2 -1 0 0 0 0 0 0 0 0 0 0 0 0 0 0 0 0 0 0 0 0 -23 -54 -53 -42 -141 -83 -60 -87 -134 -137 -183 -220 -217 -280 -308 -303
-17 -10 -5 -4 -1 0 0 0 0 -1 -1 0 -1 0 0 0 -1 0 0 0 0 0 0 0 0 0 0 0 0 0 0 0 0 0 0 0 0 0 0 0 -99 -144 -91 -26 -10 -114 -102 -105 -172 -201 -163 -213 -289 -298
-9 -6 -2 -2 0 0 0 0 0 0 0 0 0 0 0 0 -2 0 0 0 0 0 0 0 0 0 0 0 0 0 0 0 0 0 0 0 0 -69 -40 -24 -1 -142 -5 -104 -90 -154 -130 -148 -126 -146 -169 -194 -227 -253
-4 -2 0 0 0 0 0 -1 0 0 0 0 0 0 0 0 -1 0 0 0 0 0 0 0 0 0 0 0 0 0 0 0 0 0 0 0 0 0 -9 -6 -53 0 0 0 -110 -90 -38 -96 -127 -119 -109 -170 -264 -116
-2 -2 0 0 0 0 0 0 0 0 0 0 0 0 0 0 0 0 0 0 0 0 0 0 0 0 0 -15 -13 0 0 0 0 0 0 0 0 -19 -1 -3 0 0 0 0 0 -86 -67 -134 -109 -110 -139 -124 -132 -182
0 -5 0 0 0 0 0 0 0 0 0 0 0 0 0 0 -3 0 0 0 0 0 0 0 0 -7 0 0 0 -63 0 0 0 0 0 0 0 -4 -13 0 0 -116 0 0 0 -129 -68 -101 -108 -100 -102 -151 -101 -130
0 0 -1 0 0 0 0 0 0 0 0 0 0 0 -1 0 0 0 0 0 0 0 0 0 0 0 0 0 -1 -2 0 -12 -2 0 0 0 0 -9 -58 -95 0 0 -143 -158 0 -46 -39 0 -107 -105 -88 -79 -86 -97
0 0 0 0 0 0 0 0 0 0 0 0 0 -8 0 0 -12 -27 -7 0 0 0 0 0 0 0 0 -8 -20 0 0 -8 -4 0 0 -1 0 -25 0 -138 -51 -174 0 0 -150 -153 0 0 0 0 -74 -45 -72 -94
0 0 0 0 0 0 0 0 0 0 0 0 0 0 0 0 -19 -6 -2 0 -3 -8 -25 -13 -28 0 0 0 -5 0 0 -7 -6 -14 -5 -3 -13 -35 -72 -97 -173 -212 0 0 -187 -151 -61 0 0 0 -78 -43 -56 -68
-2 0 -1 0 0 0 0 0 0 0 0 0 0 0 0 0 0 0 0 -1 -1 -8 -5 -9 -16 -29 -16 -10 -8 -5 0 -5 0 -3 -5 -7 -3 -70 -9 0 -32 0 0 0 0 -176 -155 -130 0 0 -76 -75 -74 -80
-2 -4 0 0 0 0 0 0 0 0 0 0 0 0 0 0 0 0 -7 -8 -1 -5 -10 -24 -29 0 0 -8 -6 0 -2 -1 -9 -4 0 0 0 0 0 0 0 0 0 0 0 0 -161 -156 0 0 -12 -107 -116 -108
-3 -9 0 0 0 0 0 0 0 0 0 0 0 0 0 0 0 0 0 0 0 0 0 0 0 0 0 -3 -8 -9 -3 -1 -2 0 0 -1 -2 0 0 0 0 0 0 0 0 0 -213 -194 -173 -130 -148 -136 -118 -100
-5 -4 0 0 0 0 0 0 0 0 0 0 0 0 0 0 0 0 -20 -18 -48 -43 0 0 0 0 -3 -10 -9 -5 -3 0 0 0 -2 -1 0 0 0 0 0 0 0 0 0 -247 -228 -196 -202 -189 -207 -162 -159 -136
-1 0 0 0 0 0 0 0 0 0 0 0 0 0 0 0 0 0 -39 -34 0 -25 0 -17 -4 0 -4 -9 -6 -16 -1 -1 0 0 0 0 0 0 0 0 0 0 0 0 0 -192 -215 -232 -215 -201 -194 -184 -172 -173
0 0 0 0 0 0 0 0 0 0 0 0 -3 0 0 0 -26 -1 0 0 0 0 -2 -6 -23 -6 0 0 -6 -15 0 0 0 -1 0 0 0 0 0 0 0 0 0 0 0 0 -164 -188 -199 -21 0 0 0 0
0 0 0 0 0 0 0 0 0 0 0 0 0 0 0 0 0 0 0 0 -9 -2 -7 0 0 0 0 -2 -7 -17 0 0 0 0 0 0 0 0 0 0 0 0 0 0 0 0 0 0 0 0 0 0 0 0
0 0 0 0 0 0 0 0 0 0 0 0 0 0 0 0 0 -9 -11 -9 0 -7 -1 -1 0 -3 0 0 0 0 0 0 0 0 0 -10 0 0 0 0 0 0 0 0 0 0 0 0 -4 0 0 0 0 0
0 0 0 0 0 0 0 0 0 0 0 0 0 0 0 0 -6 0 0 0 0 0 -11 0 0 0 0 0 0 0 0 0 -11 -1 0 0 0 0 0 0 0 0 0 0 0 0 0 0 0 0 0 0 0 0
0 0 0 0 0 0 0 0 0 0 0 0 0 -1 0 0 0 0 0 0 0 0 0 0 0 0 0 0 0 -1 0 0 -1 -4 0 0 0 0 0 0 0 0 0 0 0 0 0 0 0 0 0 0 0 -1
0 0 0 0 0 0 0 0 0 0 0 0 0 0 0 0 0 0 0 0 0 0 0 0 0 0 0 -3 -5 -4 -6 -10 -5 0 0 0 0 0 0 0 0 0 0 0 0 0 0 -2 -1 -2 0 -5 -11 0
0 0 0 0 0 0 0 0 0 0 0 0 0 0 0 0 0 0 0 0 0 0 -7 -2 -3 -3 -2 -4 0 -1 -5 0 0 0 0 0 0 0 0 0 0 0 0 0 -2 0 -32 -38 -44 -6 0 0 0 0
0 0 0 0 0 0 0 0 0 0 0 0 0 0 0 0 0 0 0 0 0 0 -1 -3 -3 -6 0 0 -3 0 0 0 0 0 0 0 0 0 0 0 0 0 -13 0 0 0 0 0 0 0 0 0 0 0
0 0 0 0 0 0 0 0 0 0 0 0 0 0 0 0 0 0 0 0 0 0 -10 -6 -11 -18 -2 -6 -20 0 0 -19 0 0 0 0 0 0 0 0 0 0 0 0 0 0 0 0 0 0 0 0 0 0
0 0 0 0 0 0 0 0 0 0 0 0 0 0 0 0 0 0 0 0 0 0 -25 -22 -24 -26 -17 0 0 0 0 0 0 0 0 0 0 0 0 0 0 0 0 0 0 0 0 0 0 0 0 0 0 0
0 0 0 0 0 0 0 0 0 0 0 -1 0 0 0 0 0 0 0 0 0 0 0 0 0 0 0 0 0 0 0 0 0 0 0 0 0 0 0 0 0 0 0 0 0 0 0 0 0 0 0 0 0 0
0 0 0 -3 0 0 0 0 0 -4 0 0 0 0 0 0 0 0 -18 -26 -32 -21 0 0 0 0 0 0 0 0 0 0 0 0 0 0 0 0 0 0 0 0 0 0 0 0 0 0 0 0 0 0 0 0
0 0 0 -2 0 0 0 0 0 0 0 0 0 0 0 0 0 0 0 0 0 0 0 0 0 0 0 0 0 0 0 0 0 0 0 0 0 0 0 0 0 0 0 0 0 0 0 0 0 0 0 0 0 0
-8 -7 -16 -12 -3 0 0 0 0 0 0 -13 0 0 0 0 0 0 0 0 0 0 0 0 0 0 0 0 0 0 0 0 0 0 0 0 0 0 0 0 0 0 0 0 0 0 0 0 0 0 0 0 0 0
0 -4 -3 -4 -5 -24 -24 -34 -3 0 0 0 0 0 0 0 0 0 0 0 0 0 0 0 0 0 0 0 0 0 0 0 0 0 0 0 0 0 0 0 0 0 0 0 0 0 0 0 0 0 0 0 0 0
0 0 -1 -2 -2 -5 -18 0 -1 -2 0 0 0 0 0 0 0 0 0 0 0 0 0 0 0 0 0 0 0 0 0 0 0 0 0 0 0 0 0 0 0 0 0 0 0 0 0 0 0 0 0 0 0 0
Wind_Speed
18 21 21 21 25 25 25 25 24 24 23 22 22 22 22 22 22 21 17 19 19 21 23 21 22 23 21 21 24 21 22 22 24 26 26 25 26 24 25 22 22 23 24 26 25 30 33 19 19 20 22 22 22 19
14 17 19 21 23 25 24 24 24 23 23 23 22 22 21 22 22 21 18 19 20 20 21 19 22 24 23 21 20 20 20 20 20 24 24 23 25 24 25 27 21 24 23 26 24 25 20 20 24 24 26 27 24 19
11 15 20 25 17 24 24 23 23 24 23 23 22 22 21 22 22 21 20 19 18 19 20 19 18 17 20 26 20 19 18 18 18 18 20 23 26 23 27 26 24 22 19 23 23 21 23 23 22 21 24 25 24 18
12 14 17 19 19 23 24 24 23 23 23 23 22 22 22 22 21 20 19 16 17 17 17 15 16 18 15 14 16 18 17 16 17 19 20 22 24 21 25 25 25 24 22 25 27 27 26 23 21 22 21 20 16 11
13 14 14 18 20 24 23 24 24 24 23 23 23 22 22 21 21 19 18 17 17 16 16 17 18 13 15 13 14 15 18 19 19 21 21 23 22 23 23 25 27 23 25 27 26 24 22 22 19 20 19 16 14 11
13 13 14 18 21 22 23 23 24 24 24 24 23 23 22 21 19 17 16 15 16 16 16 14 16 14 15 13 11 12 12 16 19 20 21 21 21 22 26 27 23 22 24 26 27 28 25 23 18 18 18 15 14 12
12 13 13 17 21 20 23 23 23 24 24 24 24 23 22 20 17 16 15 16 12 15 16 16 15 15 16 13 13 12 11 14 16 19 21 22 21 22 26 29 23 24 25 24 21 22 23 21 21 18 16 13 11 10
11 14 11 18 19 20 22 22 23 23 24 24 24 24 21 18 16 17 16 9 11 16 16 17 17 15 15 14 14 13 13 15 16 18 18 21 20 21 27 25 26 24 28 25 21 20 20 19 18 16 14 13 12 11
13 13 9 18 18 20 22 22 23 23 23 23 22 17 13 15 16 16 16 9 14 16 16 17 16 14 17 14 14 13 14 16 16 18 18 17 19 24 21 24 25 25 25 27 26 22 17 18 18 17 17 17 15 14
15 8 9 18 19 20 21 21 22 22 22 18 17 17 16 16 17 14 17 16 17 16 16 17 15 15 15 15 13 15 14 16 18 16 14 17 21 17 19 21 23 25 26 27 26 24 23 20 18 20 20 20 17 16
13 5 12 18 19 19 20 20 20 20 16 15 17 17 16 17 16 17 18 18 17 18 15 15 15 16 14 15 15 15 16 15 17 16 15 17 19 17 20 21 23 24 26 27 28 26 28 29 25 23 23 21 19 17
10 4 14 18 19 19 19 19 17 15 15 18 17 17 16 17 17 19 19 18 19 17 14 14 14 12 14 14 15 15 15 15 15 12 13 16 12 14 20 24 25 27 28 29 29 30 30 31 29 25 23 22 20 19
8 5 14 17 18 19 19 18 16 17 15 15 17 17 17 17 19 20 19 18 18 16 14 15 15 13 13 13 13 15 18 18 18 17 16 4 16 22 24 26 26 27 28 29 29 30 31 32 30 28 26 22 16 15
7 8 16 18 19 20 19 18 16 16 16 18 18 20 19 19 19 17 16 14 14 17 17 17 14 13 14 14 18 18 18 17 15 13 12 21 24 25 27 27 28 28 28 29 29 27 28 28 26 21 20 18 15 12
7 15 17 20 21 21 19 18 17 16 17 18 18 20 20 18 17 17 17 15 14 16 17 15 13 14 16 19 18 18 18 18 14 11 8 9 17 22 27 29 29 28 27 28 29 28 26 24 19 16 15 14 12 8
16 15 21 22 23 21 19 17 16 16 17 18 19 19 18 17 17 15 13 13 16 17 17 18 8 19 20 19 19 20 19 9 15 13 16 21 18 20 16 24 28 28 28 27 26 26 20 11 9 9 10 9 8 6
18 20 24 24 21 20 18 17 17 19 18 18 17 17 18 19 19 16 16 16 18 18 18 17 18 20 18 19 19 19 17 18 18 18 19 18 18 19 19 20 21 23 23 22 16 9 5 4 4 6 8 8 6 6
19 19 21 22 18 17 18 18 19 18 18 17 17 15 14 15 16 16 17 18 18 19 18 18 19 20 20 20 19 19 17 19 18 19 20 18 15 15 16 17 18 17 14 8 5 3 3 4 5 5 5 5 5 5
19 17 17 20 19 18 19 19 19 19 18 16 16 15 17 17 17 18 19 19 19 19 19 18 20 20 20 19 19 20 21 20 19 17 15 14 13 16 19 8 12 8 3 5 8 9 8 5 5 6 8 8 9 6
17 17 19 19 18 18 19 18 18 18 20 19 18 18 18 18 18 18 18 18 19 19 20 20 21 20 19 20 20 20 18 15 13 11 10 10 10 8 16 14 3 1 6 3 3 11 10 9 9 3 4 3 6 7
19 19 18 18 17 17 17 18 18 18 18 19 18 18 18 18 17 18 19 18 18 19 21 21 21 21 20 19 17 15 14 13 14 17 16 7 6 21 21 6 3 2 4 6 8 11 12 14 13 11 14 17 16 14
19 19 18 16 16 16 17 17 18 17 17 18 17 16 17 16 16 15 15 16 17 18 19 20 20 19 18 16 14 12 7 8 5 5 7 8 10 18 11 4 8 6 5 6 10 12 14 15 17 17 18 19 18 17
18 17 16 15 17 16 17 17 18 16 17 17 16 16 15 15 14 14 15 14 15 15 16 17 16 16 17 10 13 12 10 10 9 2 2 7 10 7 4 4 4 7 9 9 13 17 18 19 19 21 21 23 22 22
15 16 16 16 16 17 17 17 17 17 17 17 17 15 14 14 12 13 14 13 12 10 12 8 12 4 9 6 1 4 7 7 6 7 6 18 20 12 10 11 11 12 15 16 8 7 5 12 20 23 25 25 25 23
17 16 16 17 15 17 17 17 17 17 18 17 17 16 15 14 14 14 14 11 8 8 8 8 8 16 18 18 16 16 14 14 12 13 13 16 18 10 9 10 9 14 23 15 18 23 22 24 24 24 24 22 22 22
17 16 16 17 17 17 17 18 18 18 17 17 16 16 15 15 13 14 13 11 13 14 16 18 17 14 12 16 17 17 17 18 11 9 8 9 13 22 29 26 22 3 10 25 25 24 24 24 23 23 23 22 22 23
17 17 17 15 16 17 17 19 17 16 17 18 18 17 17 16 13 13 16 15 16 16 17 18 17 11 8 15 13 12 8 5 4 8 6 3 5 4 12 20 21 23 23 23 24 24 24 24 23 23 22 19 20 20
17 17 16 16 16 18 19 18 14 15 16 18 20 20 17 18 19 17 20 18 21 18 13 11 9 10 11 13 14 10 3 8 16 19 19 17 15 15 17 18 19 21 22 22 22 22 22 21 21 18 17 19 19 19
15 16 15 15 16 17 16 14 13 16 16 18 22 20 20 21 21 19 19 23 25 24 20 17 15 17 6 6 6 6 6 19 20 22 23 23 22 21 20 20 20 20 20 20 19 19 19 18 18 16 18 19 19 19
14 17 16 16 16 16 17 21 23 18 15 15 15 15 15 15 15 18 21 23 22 18 15 14 16 19 22 21 20 17 15 20 21 21 20 20 20 20 19 18 17 17 17 17 17 17 17 17 17 17 18 18 18 19
18 17 17 17 18 17 18 19 16 15 14 13 12 7 10 15 10 8 12 15 18 20 22 23 22 23 22 21 21 21 21 19 19 18 18 18 18 18 17 17 16 16 16 16 15 15 15 16 17 17 17 18 18 18
11 12 9 9 12 12 13 12 12 11 11 7 5 3 4 5 5 7 11 14 24 23 21 20 20 20 20 19 18 17 18 18 18 18 17 18 18 18 18 18 17 17 17 17 16 16 16 16 17 17 17 17 18 18
6 8 7 6 6 7 7 7 7 7 7 7 9 9 9 9 8 10 12 9 12 15 18 17 16 16 17 17 18 18 18 18 18 19 20 21 20 20 19 19 18 18 17 17 17 17 17 17 17 17 17 17 18 18
Wind_Direction
342 334 329 330 310 309 310 307 303 300 303 304 311 316 318 321 326 325 321 319 307 292 283 279 276 270 272 272 269 277 275 274 271 266 268 270 271 272 272 274 274 268 265 265 269 267 263 288 283 276 288 292 304 318
351 338 336 328 317 306 306 306 302 295 296 299 307 309 310 313 316 328 323 320 312 296 289 290 280 274 270 273 275 279 277 280 278 270 269 273 272 274 271 267 277 271 272 269 269 272 290 292 282 287 283 285 299 317
348 339 327 316 332 307 303 302 297 292 294 294 298 299 302 305 307 310 313 317 317 301 291 288 285 286 275 259 270 275 280 282 284 287 279 273 271 276 269 269 273 276 281 276 278 282 285 288 291 294 292 289 293 304
343 340 331 330 328 308 299 295 291 290 290 288 290 292 294 295 295 296 304 323 315 306 289 291 296 288 284 275 269 268 287 291 290 289 284 278 274 280 273 276 273 276 278 276 278 283 288 288 289 294 298 300 303 309
331 333 337 323 321 306 296 288 285 282 285 284 284 286 286 287 287 291 295 301 282 290 284 278 274 289 279 280 279 280 274 279 289 285 281 277 283 282 280 278 272 279 276 273 275 287 288 292 292 298 299 300 302 303
324 327 332 318 310 309 294 286 279 278 278 279 279 279 279 282 285 289 294 293 277 274 274 277 264 270 275 288 294 296 293 283 288 288 285 285 286 282 277 272 282 285 287 283 278 286 283 292 295 296 296 299 302 302
315 318 329 317 306 307 289 283 275 273 273 273 273 272 272 275 281 283 287 286 334 276 256 264 271 276 276 290 299 300 303 303 299 296 288 285 284 286 277 271 280 283 287 290 291 287 281 285 285 295 298 301 305 308
303 305 319 305 303 300 283 277 271 270 270 269 266 262 262 269 273 271 278 352 352 283 270 269 270 274 291 293 298 305 306 306 307 304 302 290 290 283 277 278 282 279 276 278 290 291 289 289 287 289 291 296 298 304
288 297 310 293 296 292 277 271 269 268 270 269 262 263 280 275 273 280 280 345 298 280 271 272 269 283 290 304 309 311 311 308 317 305 304 304 290 280 285 283 282 282 276 276 282 287 287 287 285 286 282 284 291 296
275 294 302 285 283 284 272 268 269 268 266 260 259 259 262 272 272 280 276 277 273 282 283 264 285 287 300 307 313 314 320 314 311 317 329 305 296 298 296 294 289 284 277 275 277 276 275 284 287 286 281 280 281 275
266 278 285 276 270 274 267 266 269 269 263 260 254 256 269 270 274 265 254 252 267 261 288 286 292 295 327 310 317 326 324 329 320 323 318 316 308 306 303 296 293 285 279 276 273 271 266 266 277 282 279 280 278 278
254 273 273 266 260 263 259 260 267 264 260 254 256 262 263 263 261 252 250 259 255 265 299 312 327 355 345 350 334 337 331 336 334 351 335 324 342 337 308 291 287 282 274 271 268 266 267 265 269 277 282 280 281 280
243 263 262 254 252 251 250 251 257 258 258 258 251 251 252 255 246 244 247 256 256 273 309 316 322 357 16 14 359 332 279 208 215 186 184 295 329 311 290 281 278 273 263 261 262 264 266 266 268 267 273 279 284 285
227 248 245 242 241 239 241 244 249 251 248 240 238 235 241 243 245 254 261 284 299 277 282 296 339 1 355 353 258 238 215 203 174 154 144 295 281 273 279 276 268 263 266 256 254 261 262 266 267 273 280 285 288 286
212 232 233 231 228 229 233 238 242 243 237 233 236 231 235 245 246 256 262 274 295 284 291 334 351 334 280 244 233 232 239 212 169 138 140 35 255 249 257 267 258 251 261 251 254 261 271 270 271 277 283 292 293 297
212 222 222 218 216 221 226 234 236 235 235 232 232 231 238 242 244 260 273 283 279 274 252 254 65 255 240 238 230 235 252 145 189 208 243 264 255 252 227 243 253 248 252 256 258 265 277 291 284 290 304 309 309 315
207 214 207 206 211 215 221 225 224 223 228 231 233 242 241 240 239 253 264 266 266 253 262 216 198 229 237 226 234 216 201 231 247 250 258 257 256 252 239 227 227 241 257 261 286 305 323 344 342 333 325 323 329 315
204 203 201 199 207 212 218 221 218 222 225 228 227 233 237 241 244 255 257 265 261 258 236 196 229 224 221 225 217 241 235 252 254 261 262 253 242 227 213 202 208 231 267 307 325 345 45 43 23 344 340 337 325 320
190 194 197 196 205 209 211 214 218 216 218 225 229 237 233 234 244 251 256 254 258 245 233 213 215 217 211 222 232 246 258 263 262 263 247 230 213 162 111 120 224 236 278 216 195 198 218 277 307 298 327 308 258 273
184 190 193 199 208 207 207 212 220 216 212 219 228 231 231 232 246 251 250 256 263 239 223 216 218 221 228 241 249 248 249 239 229 224 202 204 237 219 28 32 326 230 60 142 1 20 24 354 241 305 21 12 31 38
183 190 196 200 204 210 213 215 213 216 218 216 227 231 226 232 231 242 241 247 206 219 221 227 234 239 247 242 235 227 222 208 194 183 171 279 341 52 46 16 24 90 64 43 37 37 39 45 43 43 51 57 54 51
182 187 192 202 206 211 209 210 209 216 216 215 219 226 216 215 215 218 223 207 205 213 223 228 234 237 239 231 217 195 199 301 280 323 11 12 31 47 38 52 46 64 50 33 35 38 42 46 54 54 55 59 60 61
184 192 199 203 197 200 200 208 203 210 202 206 209 205 210 211 210 219 196 199 200 206 221 220 211 199 174 197 1 354 347 16 32 180 65 52 45 38 73 125 130 58 53 44 48 60 62 59 55 62 67 67 68 66
192 193 193 194 196 193 199 195 199 197 195 191 191 199 202 199 209 192 178 178 184 199 188 205 190 283 0 354 346 163 157 150 89 82 79 59 60 69 115 125 130 137 143 147 129 134 123 55 57 66 71 73 71 63
183 187 188 185 192 187 187 188 188 186 179 181 182 181 184 188 176 174 172 178 188 183 179 169 154 147 140 137 135 134 134 133 100 82 134 139 140 113 119 131 133 146 142 56 54 62 59 63 64 69 72 69 64 62
177 185 183 182 182 182 182 179 178 176 178 176 177 177 182 177 172 170 174 179 168 158 152 150 149 142 130 136 135 138 142 145 124 87 131 143 149 84 75 66 57 135 168 66 71 65 65 64 65 65 65 65 66 67
172 173 175 184 184 182 177 174 177 178 177 175 175 172 169 166 167 169 173 166 161 161 157 155 155 155 154 154 151 152 150 136 123 158 159 46 28 11 27 50 53 62 63 61 68 70 70 67 63 62 59 48 45 54
169 171 171 174 172 171 173 176 181 182 180 174 170 165 167 162 156 158 163 167 160 158 162 160 162 165 168 170 171 175 177 38 49 52 48 36 26 27 33 39 41 51 57 60 66 70 67 62 56 43 37 46 41 41
177 177 176 173 171 171 177 189 190 181 175 165 158 159 158 157 159 158 154 152 149 151 156 160 163 159 160 177 191 206 3 57 59 63 62 63 61 49 48 50 50 48 53 51 42 52 59 54 44 25 28 35 39 38
190 182 177 169 167 161 157 155 153 158 163 170 174 171 167 169 174 173 164 155 156 163 170 171 167 57 66 63 54 40 25 53 68 65 58 53 50 53 50 47 46 42 42 42 40 40 38 31 22 18 24 31 33 34
172 175 171 165 161 166 167 167 170 169 168 165 166 164 175 176 190 213 206 197 186 171 146 131 121 117 93 84 69 62 55 48 50 50 49 48 41 35 28 22 19 14 12 20 28 30 28 18 19 23 26 29 30 28
174 169 155 143 165 176 178 179 181 181 185 191 200 219 218 223 231 233 206 187 123 85 82 84 81 82 80 65 51 44 48 51 47 45 41 39 34 29 21 12 3 4 11 17 19 18 16 17 22 25 29 29 25 20
179 185 184 181 187 194 208 207 214 218 224 236 233 236 249 251 278 263 252 306 9 41 68 65 52 51 53 52 54 50 44 46 50 50 56 62 71 75 66 38 18 15 13 10 12 18 20 25 26 25 24 23 21 20